Observations for Trim Market St
| Time | AQI | Temp °C | Hum % | Pres Pa | CO μg/m³ | H₂S μg/m³ | NO μg/m³ | NO₂ μg/m³ | O₃ μg/m³ | SO₂ μg/m³ | PM1 μg/m³ | PM2.5 μg/m³ | PM10 μg/m³ |
|---|---|---|---|---|---|---|---|---|---|---|---|---|---|
| Wednesday 15 July 2026 | |||||||||||||
| 07:44 | 1 | 23 | 65 | 56,928 | 0.23 | 0 | 0.4 | 0 | 0.77 | 0 | 9.98 | 13.14 | 18.01 |
| 07:39 | 1 | 22.6 | 67 | 56,489 | 0.25 | 0 | 0.53 | 0.17 | 0 | 0 | 7.84 | 12.53 | 17.22 |
| 07:35 | 1 | 22.3 | 68 | 55,870 | 0.25 | 0 | 0 | 1.71 | 1.57 | 0 | 7.13 | 9.99 | 15.19 |
| 07:34 | 1 | 22.2 | 68 | 55,688 | 0.27 | 0 | 1.13 | 2.8 | 0 | 0 | 9.26 | 13.87 | 20.26 |
| 07:33 | 1 | 22.1 | 69 | 55,468 | 0.27 | 0 | 0.36 | 0.89 | 0 | 0 | 8.55 | 11.9 | 17.05 |
| 07:24 | 1 | 21.2 | 71 | 51,902 | 0.25 | 0 | 1.13 | 5.94 | 4.84 | 0 | 11.4 | 15.1 | 21.15 |
| 07:23 | 1 | 21.1 | 72 | 51,266 | 0.23 | 0 | 0 | 1.74 | 4.5 | 0 | 8.55 | 12.66 | 17.42 |
| 07:21 | 1 | 20.9 | 72 | 49,938 | 0.24 | 0 | 0 | 2.14 | 2.77 | 0 | 10.69 | 13.59 | 19.83 |
| 07:20 | 1 | 20.8 | 72 | 49,181 | 0.24 | 0 | 0.2 | 2.93 | 6.77 | 0 | 8.55 | 12.6 | 20.41 |
| 07:18 | 1 | 20.7 | 73 | 47,439 | 0.24 | 0 | 0 | 2.71 | 6.1 | 0 | 9.98 | 13.05 | 18.52 |
| 07:17 | 1 | 20.6 | 73 | 46,379 | 0.25 | 0 | 0 | 2.61 | 3.81 | 0 | 9.26 | 14.96 | 21.54 |
| 07:15 | 1 | 20.4 | 73 | 44,076 | 0.27 | 0 | 0 | 3.62 | 9.76 | 0 | 8.55 | 11.07 | 15.42 |
| 07:14 | 1 | 20.4 | 74 | 42,612 | 0.25 | 0 | 0 | 2.69 | 4.72 | 0 | 9.98 | 12.02 | 17.82 |
| 07:13 | 1 | 20.3 | 74 | 41,244 | 0.26 | 0 | 0 | 2.8 | 5.81 | 0 | 11.4 | 14.89 | 21.43 |
| 07:11 | 1 | 20.2 | 74 | 37,973 | 0.29 | 0 | 0.41 | 5.98 | 9.5 | 0 | 9.26 | 15.34 | 21.37 |
| 07:09 | 1 | 20.1 | 75 | 36,138 | 0.27 | 0 | 0 | 5.86 | 4.52 | 0 | 10.69 | 14.82 | 21.92 |
| 07:07 | 1 | 20 | 75 | 32,997 | 0.28 | 0 | 0.56 | 5.84 | 5.08 | 0 | 8.55 | 12.4 | 17.08 |
| 07:06 | 1 | 19.9 | 75 | 31,308 | 0.29 | 0 | 0 | 5.95 | 7.67 | 0 | 11.4 | 13.82 | 20.04 |
| 07:05 | 1 | 19.8 | 75 | 29,329 | 0.29 | 0 | 0 | 4.75 | 13.18 | 0 | 8.55 | 13.8 | 20.61 |
| 07:04 | 1 | 19.7 | 76 | 27,364 | 0.29 | 0 | 0.32 | 4.65 | 9.83 | 0 | 9.26 | 12.35 | 18.81 |